Время (UTC), дата Ветер
(°,м/с) 
Видим.   Явления Облачность Т
(°С)
Тd
(°С)
f(%) Тe
(°С)
Pmin
(гПа)
dP
(гПа)
Po
(мм)
O2
(г/м3)
Тmin Tmax R s Состояние
почвы
00 01.05.11 250 (З) 10 км  {дождь}  9/9 450 м 
[Sc]
+12 +10.5 91 +13  1008.5  0.3  750  287           
03 01.05.11 240 (ЮЗ) 4000 м  слаб. дождь  10/8 120 м средняя 
[Frnb|As op]
+11.7 +10.9 95 +13  1008.4  -0.1  750  288           
06 01.05.11 230 (ЮЗ) 1800 м  слаб. дождь  10/8 100 м средняя 
[Frnb|As op]
+11.6 +10.9 96 +13  1009  0.6  750  288  +11.4       
09 01.05.11 270 (З) 10 км  {дождь}  10/8 400 м средняя 
[Sc|Ac und]
+13.3 +10.4 83 +15  1010.5  1.5  751  287           
12 01.05.11 260 (З) 10 км  {дождь}  10/6 480 м средняя 
[Sc|Ac und]
+14.5 +11.4 82 +17  1010.4  -0.1  751  285           
15 01.05.11 260 (З) 10 км    4/3 300 м средняя 
[Sc|Ac trans]
+14.4 +11.1 81 +18  1010.7  0.3  751  286           
18 01.05.11 280 (З) 4000 м  дымка  8/0 средняя, верхняя 
[Ac trans|Ci fib]
+12.7 +10 84 +14  1011.7  752  288    +15.6  0.5     
21 01.05.11 290 (З) 4000 м  дымка  10/0 средняя 
[Ac und]
+12.1 +10.4 89 +14  1011.7  -0.1  752  288           
00 02.05.11 300 (СЗ) 4000 м  дымка  10/0 средняя 
[Ac und]
+12.3 +9.8 85 +13  1011.5  -0.2  752  288           
03 02.05.11 240 (ЮЗ) 4000 м  дымка  8/0 средняя 
[Ac trans]
+11 +9 87 +12  1011.7  0.1  752  290           
06 02.05.11 220 (ЮЗ) 10 км    3/0 средняя 
[Ac trans]
+14.9 +11.7 81 +18  1011.4  -0.1  752  285  +11         
09 02.05.11 220 (ЮЗ) 10 км    4/4 1000 м 
[Cu med, cong]
+18.9 +11.7 63 +22  1010.7  -0.6  752  281           
12 02.05.11 260 (З) 10 км    3/3 1000 м 
[Cu med, cong]
+20.3 +9.7 51 +21  1009.8  -0.9  751  280           
15 02.05.11 280 (З) 10 км    4/1 1000 м верхняя 
[Cu hum|Ci fib]
+20.3 +8.8 48 +20  1009  -0.8  750  280           
18 02.05.11 280 (З) 10 км    6/0 средняя, верхняя 
[Ac trans|Ci]
+15.8 +9.9 68 +17  1009.9  0.8  751  284    +21.5       
21 02.05.11 290 (З) 10 км    8/3 300 м средняя 
[Sc|Ac trans]
+15.4 +9.4 67 +15  1010.2  0.3  751  285           
00 03.05.11 330 (СЗ) 10 км    8/3 300 м средняя 
[Sc|Ac trans]
+14.1 +8.2 68 +14  1009.5  -0.8  750  286           
03 03.05.11 240 (ЮЗ) 10 км    5/0 средняя, верхняя 
[Ac trans|Ci fib]
+11 +8.2 83 +12  1009.9  0.3  751  289           
06 03.05.11 290 (З) 10 км    8/0 средняя, верхняя 
[Ac trans|Ci]
+19.6 +7.3 45 +21  1010  0.4  751  281  +9.8         
09 03.05.11 260 (З) 10 км    9/3 1000 м средняя, верхняя 
[Cu med, cong|Ac trans|Ci fib]
+22.2 +7.9 40 +22  1009.7  -0.2  751  278           
12 03.05.11 250 (З) 10 км    9/1 1000 м средняя, верхняя 
[Cu med, cong|Ac trans|Ci sp]
+22.6 +7.5 38 +23  1009  -0.7  750  278           
15 03.05.11 270 (З) 10 км    8/1 1000 м кучево-дожд., средняя, верхняя 
[Cb calv|Ac trans|Ci sp]
+20.6 +8.4 45 +21  1008.7  -0.4  750  280           
18 03.05.11 290 (З) 10 км    8/0 средняя, верхняя 
[Ac trans|Ci fib]
+18.6 +9.5 55 +21  1009.4  0.7  751  281    +22.6       
21 03.05.11 330 (СЗ) 10 км    6/0 средняя 
[Ac trans]
+16.1 +10.5 69 +19  1008.8  -0.7  750  283           
00 04.05.11 тихо ()   10 км    8/1 1000 м кучево-дожд., средняя 
[Cb calv|Ac trans]
+15.1 +10.3 73 +17  1008.5  -0.3  750  284           
03 04.05.11 320 (СЗ) 4000 м  дымка  9/3 1000 м кучево-дожд., средняя 
[Cb calv|Ac trans]
+14.4 +12.7 90 +20  1008.4  -0.1  750  284           
06 04.05.11 100 (В) 10 км    8/1 1000 м кучево-дожд., средняя 
[Cb calv|Ac trans]
+17.4 +12 71 +22  1008.6  0.3  750  282  +13.3         
09 04.05.11 160 (Ю) 10 км  {ливн. осадки}  8/4 1000 м кучево-дожд., средняя 
[Cb calv|Ac trans]
+17.7 +12.5 72 +23  1008.4  0.7  750  281           
12 04.05.11 090 (В) 10 км  {ливн. осадки}  8/4 1000 м верхняя 
[Cu med, cong|Ci]
+21.7 +11.1 51 +24  1006.3  -2  748  277           
15 04.05.11 360 (С) 10 км  гроза, ливневой дождь  9/5 1000 м кучево-дожд., средняя, верхняя 
[Cb cap|Ac trans|Ci fib]
+20.1 +12.1 60 +24  1006.2  -0.1  748  279           
18 04.05.11 070 (В) 10 км  гроза без осадков{ливн. осадки}  6/3 1000 м кучево-дожд., средняя, верхняя 
[Cb cap|Ac trans|Ci fib]
+15.2 +11 76 +18  1006.5  0.1  748  284    +23  0.3     
21 04.05.11 тихо ()   10 км  {гроза}  8/0 средняя 
[Ac trans]
+14.4 +11.8 84 +18  1006.5  748  284           
00 05.05.11 010 (С) 10 км  {гроза}  6/0 средняя 
[Ac trans]
+13.9 +10.6 81 +16  1006.2  -0.3  748  285           
03 05.05.11 030 (СВ) 4000 м  дымка  9/0 средняя, верхняя 
[Ac trans|Ci fib]
+13.5 +11.6 88 +17  1006.3  0.1  748  285           
06 05.05.11 130 (ЮВ) 10 км    9/1 1000 м кучево-дожд., средняя 
[Cb calv|Ac trans]
+17.1 +12.6 75 +22  1007  0.8  749  281  +10.7    0.0     
09 05.05.11 130 (ЮВ) 10 км    6/4 1000 м кучево-дожд., средняя 
[Cb calv|Ac trans]
+21.9 +12.8 56 +27  1006.4  -0.5  748  277           
12 05.05.11 110 (В) 10 км  гроза, ливневой дождь  9/6 1000 м кучево-дожд., средняя 
[Cb cap|Ac trans]
+21.6 +11.3 52 +25  1005.9  -0.5  748  277           
15 05.05.11 010 (С) 10 км  {гроза, ливн. осадки}  9/4 1000 м кучево-дожд., средняя 
[Cb calv|Ac trans]
+18.3 +13.6 74 +24  1006.8  0.8  749  280           
18 05.05.11 тихо ()   10 км  слаб. ливневой дождь{гроза}  9/4 1000 м кучево-дожд., средняя 
[Cb calv|Ac trans]
+17.4 +13.5 78 +24  1008.2  1.4  750  281    +23.8     
21 05.05.11 300 (СЗ) 10 км  слаб. ливневой дождь  9/4 1000 м кучево-дожд., средняя 
[Cb calv|Ac trans]
+15.7 +13.8 88 +23  1008.4  -0.1  750  283           
00 06.05.11 200 (Ю) 4000 м  слаб. ливневой дождь  10/8 1000 м кучево-дожд., средняя 
[Cb calv|Ac und]
+14.5 +13.5 94 +21  1008.6  0.2  750  284           
03 06.05.11 тихо ()   4000 м  слаб. ливневой дождь  10/8 900 м кучево-дожд., средняя 
[Cb calv|Ac und]
+14.6 +13.7 94 +21  1008.6  750  284           
06 06.05.11 350 (С) 4000 м    10/6 240 м кучево-дожд., средняя 
[Cb calv|Ac und]
+16.7 +14.3 86 +25  1008.8  0.2  750  282  +14.2         
09 06.05.11 160 (Ю) 2500 м  слаб. ливневой дождь  10/6 120 м кучево-дожд., средняя 
[Cb calv|Ac und]
+16.2 +14.9 92 +25  1009.1  0.3  750  282           
12 06.05.11 270 (З) 10 км  {ливн. осадки}  9/5 480 м кучево-дожд., средняя 
[Cb calv|Ac trans]
+18 +14.2 78 +26  1008.9  -0.1  750  281           
15 06.05.11 260 (З) 10 км  слаб. ливневой дождь  10/6 900 м кучево-дожд., средняя 
[Cb calv|Ac und]
+16.5 +14.8 90 +25  1009.8  0.8  751  282           
18 06.05.11 250 (З) 10 км  слаб. ливневой дождь  10/6 270 м кучево-дожд., средняя 
[Cb calv|Ac und]
+15.5 +13.9 90 +22  1011.5  1.7  752  284    +18.2     
21 06.05.11 270 (З) 10 км  в посл. час снег{ливн. осадки}  10/6 210 м кучево-дожд., средняя 
[Cb calv|Ac und]
+13.8 +12.2 90 +17  1012.3  0.7  753  286           
00 07.05.11 270 (З) 10 км  {ливн. осадки}  10/8 270 м кучево-дожд., средняя 
[Cb calv|Ac und]
+11.2 +9.4 89 +10  1014.4  754  290           
03 07.05.11 280 (З) 4000 м  дымка  10/8 270 м кучево-дожд., средняя 
[Cb calv|Ac und]
+9.6 +7.6 87 +9  1016.1  1.6  755  293           
06 07.05.11 280 (З) 4000 м  дымка  10/10 360 м 
[Sc]
+9.9 +7 82 +9  1017.8  1.7  757  293  +9.2    0.3     
09 07.05.11 290 (З) 10 км    8/8 750 м 
[Cu med, cong]
+12.3 +5.4 63 +11  1019  1.3  758  291           
12 07.05.11 300 (СЗ) 10 км    8/6 900 м средняя 
[Cu hum|Ac trans]
+13.8 +4.5 53 +13  1020  0.9  758  290           
15 07.05.11 300 (СЗ) 10 км    8/4 1000 м верхняя 
[Cu hum|Ci fib]
+14.1 +5.8 57 +14  1021  759  290           
18 07.05.11 270 (З) 10 км    8/0 средняя, верхняя 
[Ac trans|Ci fib]
+11.7 +7.6 76 +12  1021.5  0.5  759  292    +14.5       
21 07.05.11 010 (С) 10 км    5/0 средняя, верхняя 
[Ac trans|Ci fib]
+10.1 +5.9 75 +10  1021.5  -0.1  759  294           
00 08.05.11 340 (С) 10 км    6/1 1000 м кучево-дожд., средняя, верхняя 
[Cb calv|Ac trans|Ci fib]
+9.4 +6.1 80 +9  1020.8  -0.7  759  294           
03 08.05.11 350 (С) 3000 м  слаб. ливневой дождь  10/6 180 м кучево-дожд., средняя 
[Cb calv|Ac und]
+9.7 +8.8 94 +9  1019.6  -1.2  758  293           
06 08.05.11 060 (СВ) 10 км  {ливн. осадки}  9/5 900 м кучево-дожд., средняя 
[Cb calv|Ac trans]
+14.6 +10.3 75 +15  1018.9  -0.5  758  288  +8.8       
09 08.05.11 100 (В) 10 км    8/5 900 м средняя 
[Cu med, cong|Ac trans]
+18.2 +8.4 53 +18  1018.4  -0.4  757  285           
12 08.05.11 090 (В) 10-15{16}  10 км    8/8 1000 м 
[Cu med, cong]
+18.5 +6.6 46 +18  1017.9  -0.5  757  285           
15 08.05.11 090 (В) 8{15}  10 км    8/3 1000 м кучево-дожд., средняя 
[Cb calv|Ac trans]
+17.6 +6.3 47 +17  1018.3  0.4  757  286           
18 08.05.11 220 (ЮЗ) 4{15}  10 км    9/1 1000 м кучево-дожд., средняя 
[Cb calv|Ac trans]
+12.7 +10.9 89 +14  1019.2  0.7  758  290    +19.5  0.0     
21 08.05.11 030 (СВ) 10 км    8/0 средняя 
[Ac trans]
+13.5 +7.5 67 +14  1018.6  -0.6  757  289           
00 09.05.11 040 (СВ) 10 км    8/0 средняя 
[Ac trans]
+11.3 +5.5 67 +11  1018.7  0.1  757  292           
03 09.05.11 040 (СВ) 10 км    8/3 1000 м средняя 
[Sc|Ac trans]
+12.4 +5.4 62 +12  1018.2  -0.5  757  291           
06 09.05.11 040 (СВ) 10 км    9/0 средняя, верхняя 
[Ac trans|Ci fib]
+15.6 +6.2 54 +16  1018.1  757  288  +11.1         
09 09.05.11 080 (В) 10 км    9/6 1200 м кучево-дожд., средняя 
[Cb calv|Ac trans]
+15.1 +7.2 59 +15  1017.9  -0.2  757  288           
12 09.05.11 320 (СЗ) 10 км  {ливн. осадки}  10/5 1200 м кучево-дожд., средняя 
[Cb calv|Ac und]
+15 +6.5 57 +16  1017.5  -0.4  756  288           
15 09.05.11 030 (СВ) 10 км  слаб. ливневой дождь  10/6 1380 м кучево-дожд., средняя 
[Cb calv|Ac und]
+15.3 +6.4 55 +16  1017  -0.5  756  287           
18 09.05.11 290 (З) 10 км  {ливн. осадки}  9/4 1000 м кучево-дожд., средняя 
[Cb calv|Ac trans]
+14.4 +8 65 +15  1016.9  -0.1  756  288    +16.3  0.0     
21 09.05.11 260 (З) 10 км    10/0 
+13.6 +10.4 81 +15  1015.9  -1  755  288           
00 10.05.11 230 (ЮЗ) 10 км    10/3 1000 м кучево-дожд., средняя 
[Cb calv|Ac und]
+12.1 +10.4 89 +14  1015.1  -0.9  755  289           
03 10.05.11 230 (ЮЗ) 10 км  слаб. ливневой дождь  9/3 1000 м кучево-дожд., средняя 
[Cb calv|Ac trans]
+11.4 +9.6 89 +11  1015.1  755  290           
06 10.05.11 220 (ЮЗ) 10 км  {ливн. осадки}  8/5 480 м кучево-дожд., средняя, верхняя 
[Cb calv|Ac und|Ci ing]
+14.6 +10.2 75 +15  1015.2  0.2  755  287  +11.4    0.0     
09 10.05.11 250 (З) 10 км    8/8 900 м 
[Cu med, cong]
+17.6 +10.4 63 +19  1015.5  0.4  755  284           
12 10.05.11 250 (З) 10 км  гроза без осадков  8/5 1000 м кучево-дожд., верхняя 
[Cb cap|Ci fib]
+18.4 +10.4 60 +20  1015.6  0.1  755  283           
15 10.05.11 250 (З) 10 км  {гроза, ливн. осадки}  9/6 1000 м кучево-дожд., средняя 
[Cb calv|Ac trans]
+15.5 +7.9 60 +15  1016  0.3  755  287           
18 10.05.11 220 (ЮЗ) 10 км  {гроза, ливн. осадки}  9/8 500 м кучево-дожд., средняя 
[Cb calv|Ac trans]
+12.2 +8.4 78 +12  1017.4  1.3  756  290    +18.6  0.0     
21 10.05.11 220 (ЮЗ) 10 км    10/6 240 м средняя 
[Sc|Ac trans]
+11.1 +8.8 86 +10  1017  -0.4  756  291           
00 11.05.11 230 (ЮЗ) 10 км    10/8 360 м кучево-дожд., средняя 
[Cb calv|Ac und]
+10.5 +8.4 87 +10  1016.3  -0.7  755  292           
03 11.05.11 220 (ЮЗ) 10 км    10/10 180 м 
[St]
+10.3 +8.9 91 +9  1016.3  755  292           
06 11.05.11 230 (ЮЗ) 10 км    10/8 270 м средняя 
[St|Ac und]
+12 +9.8 86 +12  1016.7  0.4  756  290  +10.3         
09 11.05.11 220 (ЮЗ) 10 км    9/8 840 м средняя 
[Cu med, cong|Ac trans]
+16.4 +9.8 65 +17  1016.6  756  286           
12 11.05.11 260 (З) 10 км    8/5 930 м средняя 
[Cu med, cong|Ac trans]
+16.9 +9.5 62 +17  1016.2  -0.3  756  285           
15 11.05.11 240 (ЮЗ) 10 км    3/3 1000 м 
[Cu med, cong]
+16.6 +9.9 65 +18  1015.4  -0.8  755  285           
18 11.05.11 300 (СЗ) 10 км    3/0 средняя 
[Ac trans]
+13.2 +9 76 +14  1016.4  0.8  756  289    +18       
21 11.05.11 320 (СЗ) 10 км    3/0 средняя 
[Ac trans]
+11.2 +8.3 82 +11  1015.6  -0.8  755  291           
00 12.05.11 350 (С) 10 км    3/0 верхняя 
[Ci fib]
+9.2 +7.6 90 +9  1014.8  -0.9  754  293           
03 12.05.11 020 (С) 10 км    6/0 средняя, верхняя 
[Ac trans|Ci fib]
+12.4 +8.9 79 +12  1014.3  -0.4  754  289           
06 12.05.11 080 (В) 10 км    8/0 средняя, верхняя 
[Ac trans|Ci fib]
+17.1 +11.1 68 +20  1014.1  754  284  +8.8         
09 12.05.11 090 (В) 10 км    8/6 1000 м верхняя 
[Cu med, cong|Ci fib]
+19.9 +10.9 56 +23  1012.3  -1.7  753  281           
12 12.05.11 080 (В) 10 км    8/6 1000 м кучево-дожд., верхняя 
[Cb calv|Ci fib]
+19.7 +9.5 52 +20  1011.5  -0.8  752  281           
15 12.05.11 120 (ЮВ) 10 км    9/1 1000 м кучево-дожд., средняя, верхняя 
[Cb calv|Ac trans|Ci fib]
+19.2 +9 52 +20  1011  -0.5  752  281           
18 12.05.11 220 (ЮЗ) 10 км    8/0 средняя, верхняя 
[Ac trans|Ci fib]
+15.3 +10.4 73 +18  1012.1  752  285    +21.5       
21 12.05.11 270 (З) 10 км    8/0 средняя, верхняя 
[Ac trans|Ci fib]
+13.5 +10.4 82 +16  1012.1  -0.1  752  287           
00 13.05.11 330 (СЗ) 10 км  слаб. ливневой дождь  9/4 1000 м кучево-дожд., средняя 
[Cb calv|Ac trans]
+13.6 +11.5 87 +17  1011.8  -0.3  752  287           
03 13.05.11 020 (С) 10 км  слаб. ливневой дождь  10/8 1200 м кучево-дожд., средняя 
[Cb calv|Ac und]
+13.6 +10.8 83 +16  1011.4  -0.4  752  287           
06 13.05.11 060 (СВ) 10 км  {ливн. осадки}  8/4 1000 м кучево-дожд., средняя, верхняя 
[Cb calv|Ac trans|Ci fib]
+17.1 +10.8 66 +19  1011.8  0.5  752  283  +12.3       
09 13.05.11 100 (В) 10 км  в посл. час ливневой дождь  10/6 660 м кучево-дожд., средняя 
[Cb calv|Ac und]
+16.3 +12.9 80 +21  1011.9  0.1  752  284           
12 13.05.11 090 (В) 10 км  в посл. час ливневой дождь  9/5 900 м кучево-дожд., средняя 
[Cb calv|Ac trans]
+18.7 +12.3 66 +23  1011.1  -0.7  752  281           
15 13.05.11 070 (В) 10 км    8/3 1000 м средняя 
[Cu med, cong|Ac trans]
+19.1 +10.4 57 +22  1010.4  -0.7  751  281           
18 13.05.11 040 (СВ) 10 км    9/0 средняя 
[Ac trans]
+17.4 +9.6 60 +19  1012.1  1.6  752  283    +20  0.6     
21 13.05.11 060 (СВ) 10 км    8/0 средняя 
[Ac trans]
+15.8 +9.8 67 +17  1012.4  0.3  753  285           
00 14.05.11 060 (СВ) 10 км    8/0 средняя 
[Ac trans]
+12.8 +9.1 78 +13  1012.1  -0.4  752  288           
03 14.05.11 040 (СВ) 10 км    6/0 средняя, верхняя 
[Ac trans|Ci fib]
+13.5 +9.8 78 +15  1012.3  0.2  753  287           
06 14.05.11 100 (В) 10 км    8/0 средняя, верхняя 
[Ac trans|Ci fib]
+18.6 +11.5 63 +23  1012.8  0.7  753  282  +11.2         
09 14.05.11 100 (В) 10 км    8/5 1000 м верхняя 
[Cu med, cong|Ci fib]
+21.1 +9.8 48 +22  1012.6  -0.2  753  280           
12 14.05.11 170 (Ю) 10 км    9/6 1000 м верхняя 
[Cu med, cong|Ci fib]
+23 +10.7 46 +25  1011.2  -1.3  752  278           
15 14.05.11 210 (ЮЗ) 10 км    8/3 1000 м верхняя 
[Cu med, cong|Ci fib]
+21.8 +9.8 46 +23  1010.7  -0.5  752  279           
18 14.05.11 280 (З) 10 км    6/0 средняя, верхняя 
[Ac trans|Ci fib]
+18.3 +10.4 60 +21  1012.4  1.5  753  282    +23.2       
21 14.05.11 300 (СЗ) 10 км    6/1 1000 м кучево-дожд., средняя, верхняя 
[Cb calv|Ac trans|Ci fib]
+16.7 +9 60 +18  1012.3  -0.1  753  284           
00 15.05.11 200 (Ю) 4000 м  дымка  9/5 420 м средняя 
[Sc|Ac trans]
+13.2 +11.8 91 +18  1012.4  753  287           
03 15.05.11 260 (З) 4000 м  дымка  9/6 150 м средняя 
[St|Ac trans]
+13.9 +12.4 91 +18  1012.6  0.2  753  286           
06 15.05.11 200 (Ю) 10 км    9/3 1000 м кучево-дожд., средняя 
[Cb calv|Ac trans]
+16.6 +12.7 78 +22  1013.1  0.6  753  284  +12.3         
09 15.05.11 230 (ЮЗ) 10 км  гроза без осадков{ливн. осадки}  8/4 1000 м кучево-дожд., средняя, верхняя 
[Cb cap|Ac trans|Ci fib]
+18.7 +10.6 59 +22  1012.7  -0.3  753  282           
12 15.05.11 050 (СВ) 3000 м  гроза, ливневой дождь  10/8 210 м кучево-дожд., средняя 
[Cb cap|Ac und]
+15.4 +12.5 83 +21  1013.1  0.2  753  285           
15 15.05.11 040 (СВ) 10 км  гроза, ливневой дождь  9/6 330 м кучево-дожд., средняя 
[Cb cap|Ac und]
+15.7 +12.8 83 +21  1014  0.8  754  285           
18 15.05.11 360 (С) 10 км  слаб. ливневой дождь{гроза}  9/5 1200 м кучево-дожд., средняя 
[Cb calv|Ac trans]
+14 +12.3 89 +18  1015.3  1.2  755  287    +19.8  10     
21 15.05.11 230 (ЮЗ) 4000 м  {ливн. осадки}  6/0 средняя, верхняя 
[Ac trans|Ci fib]
+12.2 +10.9 92 +15  1015.3  -0.1  755  289           
00 16.05.11 210 (ЮЗ) 3000 м  дымка{ливн. осадки}  10/6 150 м средняя 
[St|Ac As]
+12.6 +11.6 94 +16  1015.7  0.4  755  289           
03 16.05.11 230 (ЮЗ) 4000 м  дымка  10/8 210 м кучево-дожд., средняя 
[Cb calv|Ac As]
+13.3 +12.2 93 +17  1016.6  756  288           
06 16.05.11 220 (ЮЗ) 4000 м  слаб. ливневой дождь  10/8 330 м кучево-дожд., средняя 
[Cb calv|Ac und]
+13.4 +12 91 +17  1018.1  1.4  757  288  +11.8       
09 16.05.11 230 (ЮЗ) 10 км  {ливн. осадки}  9/5 600 м кучево-дожд., средняя 
[Cb calv|Ac trans]
+16.2 +12.7 80 +21  1018.2  0.2  757  285           
12 16.05.11 260 (З) 10 км  гроза без осадков{ливн. осадки}  9/8 700 м кучево-дожд., средняя 
[Cb cap|Ac trans]
+18.7 +13.2 70 +25  1017.2  -0.9  756  283           
15 16.05.11 260 (З) 10 км  {гроза}  4/4 600 м кучево-дожд. 
[Cb calv]
+17.6 +11.5 67 +20  1016.9  -0.3  756  284           
18 16.05.11 210 (ЮЗ) 10 км  гроза, ливневой дождь  10/6 800 м кучево-дожд., средняя 
[Cb cap|Ac As]
+14.7 +11 78 +17  1018.9  1.9  758  288    +19.3  0.5     
21 16.05.11 250 (З) 10 км  {гроза, ливн. осадки}  4/0 средняя 
[Ac trans]
+13.2 +11.4 89 +16  1019  758  289           
00 17.05.11 260 (З) 4000 м  дымка{гроза}  8/8 240 м 
[St]
+13.2 +11.7 91 +17  1019.3  0.3  758  289           
03 17.05.11 тихо ()   0800 м  туман{ливн. осадки}  9/9 100 м кучево-дожд. 
[Cb calv]
+12.2 +11.7 97 +15  1020.1  0.8  758  290           
06 17.05.11 100 (В) 0800 м  туман{ливн. осадки}  ?/?  
+13.8 +13.3 97 +20  1021.7  1.6  760  289  +11       
09 17.05.11 130 (ЮВ) 10 км  {туман}  3/3 600 м 
[Cu med, cong]
+19.7 +13 65 +26  1021.8  0.3  760  283           
12 17.05.11 080 (В) 10 км  {туман}  5/5 1080 м 
[Cu med, cong]
+21.8 +11 50 +24  1021.2  -0.5  759  281           
15 17.05.11 120 (ЮВ) 10 км    4/3 1000 м средняя 
[Cu med, cong|Ac trans]
+21.6 +10.5 49 +23  1021  -0.2  759  282           
18 17.05.11 тихо ()   10 км    3/0 средняя 
[Ac trans]
+16.9 +10 64 +18  1022.2  760  287    +23.2       
21 17.05.11 тихо ()   10 км    4/0 средняя 
[Ac trans]
+15.2 +11.9 81 +19  1022.6  0.4  760  288           
00 18.05.11 тихо ()   10 км    3/0 средняя 
[Ac trans]
+12.3 +10.5 89 +14  1022.7  760  291           
03 18.05.11 тихо ()   10 км    5/0 средняя 
[Ac trans]
+13.3 +11.3 88 +16  1022.9  0.2  760  290           
06 18.05.11 190 (Ю) 10 км    3/0 верхняя 
[Ci fib]
+20.4 +11.1 55 +23  1023.2  0.5  761  283  +12.3         
09 18.05.11 120 (ЮВ) 10 км    1/1 1000 м 
[Cu hum]
+23.6 +11 45 +26  1023.1  761  280           
12 18.05.11 080 (В) 10 км    5/5 1200 м 
[Cu med, cong]
+24.6 +9.7 39 +25  1021.8  -1.3  760  279           
15 18.05.11 110 (В) 10 км    ясно 
+23 +12.5 52 +27  1020.8  -1  759  280           
18 18.05.11 110 (В) 10 км    ясно 
+18.2 +11 63 +21  1021.4  0.5  759  285    +25.2       
21 18.05.11 120 (ЮВ) 10 км    ясно 
+16 +10.5 70 +18  1021.3  -0.2  759  287           
00 19.05.11 050 (СВ) 10 км    4/0 верхняя 
[Ci fib]
+13.9 +10.3 79 +15  1020.5  -0.9  759  289           
03 19.05.11 080 (В) 10 км    3/0 средняя, верхняя 
[Ac trans|Ci fib]
+15.5 +11.8 79 +18  1020.6  0.2  759  287           
06 19.05.11 070 (В) 10 км    4/0 верхняя 
[Ci fib]
+20.6 +13.8 65 +27  1019.8  -0.6  758  281  +13.4         
09 19.05.11 080 (В) 10 км    9/1 1000 м верхняя 
[Cu hum|Ci]
+22.9 +11.3 48 +26  1019.3  -0.5  758  280           
12 19.05.11 090 (В) 10 км    5/0 верхняя 
[Ci fib]
+24.6 +6.6 32 +25  1017.7  -1.5  757  279           
15 19.05.11 100 (В) 10 км    4/0 верхняя 
[Ci fib]
+23.8 +7.8 36 +24  1016.8  -0.9  756  279           
18 19.05.11 060 (СВ) 10 км    6/0 верхняя 
[Ci fib]
+18.9 +10.3 57 +21  1017.6  0.6  757  283    +24.8       
21 19.05.11 060 (СВ) 10 км    ясно 
+15.6 +10.6 72 +18  1018  0.3  757  287           
00 20.05.11 060 (СВ) 10 км    4/0 верхняя 
[Ci fib]
+14.1 +9.6 74 +14  1018.1  0.1  757  288           
03 20.05.11 050 (СВ) 10 км    6/0 средняя, верхняя 
[Ac trans|Ci fib]
+16.1 +10.6 70 +18  1018.6  0.5  757  286           
06 20.05.11 100 (В) 10 км    9/0 верхняя 
[Ci fib]
+20.5 +14 66 +27  1018.7  0.3  758  281  +13.4         
09 20.05.11 090 (В) 10 км    9/0 средняя, верхняя 
[Ac trans|Ci fib]
+22.2 +12.6 54 +27  1018.6  -0.1  757  280           
12 20.05.11 070 (В) 10 км    9/1 1000 м средняя, верхняя 
[Cu med, cong|Ac trans|Ci fib]
+25.6 +12.1 43 +29  1017.3  -1.2  757  276           
15 20.05.11 110 (В) 10 км    9/1 1000 м средняя, верхняя 
[Cu hum|Ac trans|Ci]
+24.2 +8.7 37 +24  1016.5  -0.8  756  278           
18 20.05.11 040 (СВ) 10 км    9/0 средняя, верхняя 
[Ac trans|Ci]
+20.2 +9.9 52 +21  1016.6  756  282    +25.8       
21 20.05.11 160 (Ю) 10 км    9/0 средняя 
[Ac trans]
+19.5 +10.4 56 +23  1016.9  0.2  756  282           
00 21.05.11 340 (С) 10 км    10/3 1000 м кучево-дожд., средняя 
[Cb calv|Ac und]
+18.4 +10.6 60 +21  1015.4  -1.5  755  283           
03 21.05.11 130 (ЮВ) 10 км    9/3 1000 м кучево-дожд., средняя, верхняя 
[Cb calv|Ac trans|Ci fib]
+17.6 +12 70 +23  1015.7  0.3  755  284           
06 21.05.11 030 (СВ) 10 км    8/1 1000 м кучево-дожд., средняя, верхняя 
[Cb calv|Ac trans|Ci]
+22.8 +14.1 58 +30  1015.6  0.1  755  278  +16.2         
09 21.05.11 080 (В) 10 км    8/3 1000 м кучево-дожд., средняя, верхняя 
[Cb calv|Ac trans|Ci fib]
+25 +11.5 43 +28  1015.3  -0.3  755  277           
12 21.05.11 090 (В) 10 км    9/3 1000 м кучево-дожд., средняя 
[Cb calv|Ac trans]
+24.2 +10.9 43 +26  1014.2  -1.1  754  277           
15 21.05.11 050 (СВ) 10 км    8/3 1000 м кучево-дожд., средняя, верхняя 
[Cb calv|Ac trans|Ci fib]
+23.9 +9.9 41 +25  1013.9  -0.3  754  278           
18 21.05.11 140 (ЮВ) 10 км  {гроза}  9/5 1200 м кучево-дожд., средняя 
[Cb calv|Ac trans]
+19.5 +11.1 58 +22  1015.3  1.3  755  282    +25.9       
21 21.05.11 360 (С) 10 км    8/3 1000 м кучево-дожд., средняя 
[Cb calv|Ac trans]
+18.5 +11.2 62 +22  1014.8  -0.6  755  283           
00 22.05.11 030 (СВ) 10 км    8/0 средняя 
[Ac trans]
+17.2 +11.6 70 +21  1014.6  -0.2  754  284           
03 22.05.11 010 (С) 10 км    8/0 средняя 
[Ac trans]
+17.5 +11.5 68 +21  1015  0.4  755  284           
06 22.05.11 030 (СВ) 10 км    9/0 средняя 
[Ac As]
+21.7 +12.7 57 +26  1015.2  0.3  755  279  +16.8         
09 22.05.11 080 (В) 10 км    8/1 1000 м средняя, верхняя 
[Cu med, cong|Ac trans|Ci fib]
+25.6 +11.4 41 +29  1015.1  755  276           
12 22.05.11 020 (С) 10 км    9/6 1200 м верхняя 
[Cu med, cong|Ci fib]
+26.8 +8.2 31 +27  1014.1  -0.9  754  275           
15 22.05.11 270 (З) 10 км  слаб. ливневой дождь  9/5 1200 м кучево-дожд., средняя 
[Cb calv|Ac trans]
+20.5 +14.9 70 +29  1014.5  0.2  754  280           
18 22.05.11 290 (З) 10 км  {гроза, ливн. осадки}  9/3 1000 м кучево-дожд., средняя 
[Cb calv|Ac trans]
+19.6 +14.2 71 +27  1015.1  0.2  755  281    +27     
21 22.05.11 330 (СЗ) 10 км    9/0 средняя 
[Ac trans]
+18.8 +14.9 78 +27  1014.7  -0.4  755  281           
00 23.05.11 360 (С) 10 км    9/0 средняя 
[Ac trans]
+19.2 +12.2 64 +24  1014.2  -0.5  754  282           
03 23.05.11 040 (СВ) 10 км  {ливн. осадки}  9/3 1000 м кучево-дожд., средняя 
[Cb calv|Ac trans]
+18.7 +11.8 64 +22  1015.2  0.9  755  282           
06 23.05.11 040 (СВ) 10 км  {ливн. осадки}  9/3 1000 м кучево-дожд., средняя 
[Cb calv|Ac trans]
+22.6 +13.8 58 +29  1015.9  0.9  755  278  +18    0.0     
09 23.05.11 360 (С) 10 км  в посл. час ливневой дождь  9/3 1000 м кучево-дожд., средняя 
[Cb calv|Ac trans]
+26.7 +13.6 44 +33  1016  0.2  756  275           
12 23.05.11 030 (СВ) 10 км  гроза без осадков{ливн. осадки}  6/5 1300 м кучево-дожд., средняя 
[Cb cap|Ac trans]
+26.5 +11.3 39 +29  1015.5  -0.5  755  275           
15 23.05.11 090 (В) 10 км  {гроза}  8/3 1000 м кучево-дожд., средняя 
[Cb calv|Ac trans]
+24.4 +15.9 59 +34  1015.7  0.1  755  276           
18 23.05.11 тихо ()   10 км  {гроза}  6/0 средняя, верхняя 
[Ac trans|Ci fib]
+20.8 +13.4 63 +27  1017  1.2  756  281    +28.3  0.0     
21 23.05.11 тихо ()   10 км    5/0 средняя 
[Ac trans]
+18.2 +12.9 71 +23  1017.7  0.6  757  283           
00 24.05.11 тихо ()   10 км    3/0 средняя 
[Ac trans]
+15.9 +12.1 78 +20  1017.8  757  286           
03 24.05.11 тихо ()   10 км    4/0 средняя 
[Ac trans]
+19 +11.8 63 +22  1018.4  0.7  757  283           
06 24.05.11 тихо ()   10 км    4/1 1000 м средняя, верхняя 
[Cu med, cong|Ac trans|Ci fib]
+25.9 +14 48 +33  1018.9  0.7  758  276  +14.8         
09 24.05.11 130 (ЮВ) 10 км    6/3 1000 м средняя, верхняя 
[Cu med, cong|Ac trans|Ci fib]
+28.8 +14 40 +36  1018.8  758  273           
12 24.05.11 310 (СЗ) 10 км  гроза без осадков  8/5 1500 м кучево-дожд., верхняя 
[Cb cap|Ci fib]
+25.3 +10.8 40 +27  1018  -0.9  757  277           
15 24.05.11 260 (З) 10 км  в посл. час гроза{ливн. осадки}  9/5 1300 м кучево-дожд., средняя, верхняя 
[Cb cap|Ac trans|Ci fib]
+23.3 +11.9 49 +27  1018  -0.1  757  279           
18 24.05.11 300 (СЗ) 10 км  гроза без осадков{ливн. осадки}  9/4 1000 м кучево-дожд., средняя 
[Cb cap|Ac trans]
+21.1 +12.8 59 +26  1018.8  0.8  758  281    +29.6  0.0     
21 24.05.11 310 (СЗ) 10 км  {гроза}  6/0 средняя 
[Ac trans]
+18.3 +12.5 69 +23  1018.4  -0.5  757  284           
00 25.05.11 тихо ()   10 км  {гроза}  ясно 
+15.9 +12.4 80 +20  1017.7  -0.8  757  286           
03 25.05.11 350 (С) 10 км    4/0 средняя, верхняя 
[Ac trans|Ci fib]
+19 +13.5 70 +27  1017.8  0.2  757  282           
06 25.05.11 100 (В) 10 км    5/0 средняя, верхняя 
[Ac trans|Ci fib]
+25.3 +13.7 49 +32  1017.6  757  276  +14.6         
09 25.05.11 100 (В) 10 км    5/3 1000 м средняя, верхняя 
[Cu med, cong|Ac trans|Ci fib]
+28.4 +8.6 29 +28  1016.8  -0.7  756  275           
12 25.05.11 220 (ЮЗ) 10 км    8/5 1300 м кучево-дожд., верхняя 
[Cb calv|Ci fib]
+26.3 +11.4 39 +29  1015.5  -1.3  755  276           
15 25.05.11 220 (ЮЗ) 10 км    8/1 1000 м кучево-дожд., верхняя 
[Cb calv|Ci fib]
+26.1 +14.4 48 +34  1014.2  -1.3  754  275           
18 25.05.11 260 (З) 10 км    9/0 верхняя 
[Ci fib]
+20.3 +14.8 71 +28  1015.2  0.8  755  280    +29.6       
21 25.05.11 320 (СЗ) 10 км    5/0 верхняя 
[Ci fib]
+21 +17.3 79 +34  1014.6  -0.6  754  278           
00 26.05.11 300 (СЗ) 4000 м    4/0 верхняя 
[Ci fib]
+18 +16.5 91 +30  1013.9  -0.8  754  281           
03 26.05.11 тихо ()   4000 м  дымка  6/0 средняя, верхняя 
[Ac trans|Ci fib]
+19.1 +16.7 86 +31  1013.9  0.1  754  280           
06 26.05.11 230 (ЮЗ) 10 км    6/1 1000 м средняя, верхняя 
[Cu med, cong|Ac trans|Ci fib]
+25.7 +15.3 53 +35  1013.6  -0.1  754  274  +16.4         
09 26.05.11 260 (З) 10 км    8/5 1200 м кучево-дожд., средняя 
[Cb calv|Ac trans]
+26.9 +13.8 44 +33  1012.7  -0.9  753  274           
12 26.05.11 320 (СЗ) 10 км  гроза без осадков  6/4 1000 м кучево-дожд., средняя 
[Cb cap|Ac trans]
+25.4 +12.6 45 +30  1012.9  0.2  753  275           
15 26.05.11 330 (СЗ) 10 км  {гроза}  6/3 1000 м кучево-дожд., средняя 
[Cb calv|Ac trans]
+19.7 +12.2 62 +24  1015.3  2.2  755  281           
18 26.05.11 360 (С) 10 км  {гроза}  4/0 средняя 
[Ac trans]
+16.3 +9.4 64 +16  1017.4  1.9  756  286    +27.5       
21 26.05.11 340 (С) 10 км    ясно 
+13.9 +8.3 69 +14  1018.7  1.2  757  289           
00 27.05.11 350 (С) 10 км    ясно 
+12 +4.4 60 +12  1020.3  1.6  758  292           
03 27.05.11 360 (С) 10 км    ясно 
+12.7 +3.9 55 +12  1021.8  1.5  760  292           
06 27.05.11 050 (СВ) 10 км    ясно 
+18.4 +1.4 32 +19  1023.1  1.4  761  287  +10.9         
09 27.05.11 060 (СВ) 10 км    ясно 
+20.6 +1.3 28 +21  1022.5  -0.5  760  285           
12 27.05.11 050 (СВ) 10 км    ясно 
+22.1 +1.2 25 +22  1021  -1.4  759  283           
15 27.05.11 050 (СВ) 10 км    ясно 
+21.2 +3.5 31 +21  1019.9  -1.1  758  283           
18 27.05.11 230 (ЮЗ) 10 км    4/0 верхняя 
[Ci fib]
+16.1 +5.3 49 +17  1020.2  0.1  758  288    +22.6       
21 27.05.11 тихо ()   10 км    ясно 
+12.2 +5.7 64 +12  1020  -0.3  758  292           
00 28.05.11 тихо ()   10 км    ясно 
+11.6 +6.5 71 +12  1019.5  -0.5  758  292           
03 28.05.11 тихо ()   10 км    ясно 
+13.6 +8.2 70 +14  1019.4  -0.1  758  289           
06 28.05.11 130 (ЮВ) 10 км    4/0 верхняя 
[Ci fib]
+20.9 +4.1 33 +21  1018.8  -0.3  758  283  +10.1         
09 28.05.11 130 (ЮВ) 10 км    ясно 
+23.2 +4.6 30 +23  1017.1  -1.7  756  280           
12 28.05.11 210 (ЮЗ) 10 км    ясно 
+25.5 +6.2 29 +26  1015.2  -1.8  755  277           
15 28.05.11 340 (С) 10 км    ясно 
+25.8 +5.2 27 +26  1014.1  -1.1  754  277           
18 28.05.11 330 (СЗ) 10 км    ясно 
+20.7 +9.4 48 +21  1014.5  -0.3  754  281    +25.9       
21 28.05.11 010 (С) 10 км    ясно 
+19.6 +6 41 +20  1013.8  -0.7  754  282           
00 29.05.11 050 (СВ) 10 км    ясно 
+16.2 +5.8 50 +17  1014.2  0.3  754  286           
03 29.05.11 060 (СВ) 10 км    1/0 средняя 
[Ac trans]
+16.8 +8 56 +17  1015.2  755  285           
06 29.05.11 070 (В) 10 км    3/0 средняя, верхняя 
[Ac trans|Ci fib]
+21.7 +11 51 +24  1016.1  756  280  +13.7         
09 29.05.11 080 (В) 10 км    4/0 верхняя 
[Ci fib]
+24.1 +7.9 35 +24  1016.8  0.8  756  279           
12 29.05.11 080 (В) 10 км    4/0 верхняя 
[Ci fib]
+25.1 +7.3 32 +25  1016.3  -0.5  756  278           
15 29.05.11 080 (В) 10 км    6/0 верхняя 
[Ci fib]
+23.1 +6.5 34 +23  1016.5  0.1  756  280           
18 29.05.11 050 (СВ) 10 км    6/0 средняя, верхняя 
[Ac trans|Ci fib]
+18.9 +8.7 52 +19  1017.4  0.8  756  284    +25.5       
21 29.05.11 080 (В) 10 км    4/0 средняя 
[Ac trans]
+16.8 +9.2 61 +17  1018.2  0.7  757  286           
00 30.05.11 080 (В) 10 км    4/0 верхняя 
[Ci fib]
+16.4 +7.5 56 +16  1018.1  -0.1  757  286           
03 30.05.11 080 (В) 10 км    4/0 средняя, верхняя 
[Ac trans|Ci fib]
+15.9 +8.2 60 +16  1019.3  1.2  758  287           
06 30.05.11 100 (В) 10 км    6/0 средняя, верхняя 
[Ac trans|Ci fib]
+21.7 +11.9 54 +25  1020.1  759  281  +15.3         
09 30.05.11 090 (В) 11-15{15}  10 км    8/0 средняя, верхняя 
[Ac trans|Ci]
+24.7 +5.8 30 +25  1020.5  0.5  759  280           
12 30.05.11 110 (В) 9{15}  10 км    8/0 средняя, верхняя 
[Ac trans|Ci]
+24.7 +4.5 27 +25  1020.2  -0.3  759  280           
15 30.05.11 100 (В) 10 км    9/0 средняя, верхняя 
[Ac trans|Ci fib]
+23.2 +10.4 44 +25  1020.3  759  280           
18 30.05.11 090 (В) 10 км    9/0 средняя, верхняя 
[Ac trans|Ci]
+19 +10.7 59 +22  1021.1  0.7  759  284    +25.8       
21 30.05.11 070 (В) 10 км    6/0 средняя, верхняя 
[Ac trans|Ci fib]
+16.9 +10.4 66 +18  1021.2  759  286           
00 31.05.11 080 (В) 10 км    8/0 средняя, верхняя 
[Ac trans|Ci fib]
+16 +10.9 72 +18  1020.9  -0.3  759  287           
03 31.05.11 080 (В) 10 км    5/0 верхняя 
[Ci fib]
+16.7 +10.8 68 +19  1021.3  0.4  759  286           
06 31.05.11 090 (В) 10 км    4/0 верхняя 
[Ci fib]
+21.3 +9.7 47 +22  1021.7  0.5  760  282  +15.3         
09 31.05.11 090 (В) 10 км    6/0 верхняя 
[Ci fib]
+25.4 +10.4 39 +27  1020.6  -0.9  759  278           
12 31.05.11 090 (В) 10 км    6/0 верхняя 
[Ci fib]
+27.6 +7.7 28 +28  1019.2  -1.3  758  276           
15 31.05.11 100 (В) 10 км    6/0 верхняя 
[Ci fib]
+26.8 +9.4 33 +27  1018.1  -1.2  757  276           
18 31.05.11 070 (В) 10 км    4/0 верхняя 
[Ci fib]
+22.4 +8.9 42 +22  1018.5  0.3  757  281    +27.8       
21 31.05.11 080 (В) 10 км    ясно 
+22 +7.5 39 +22  1018  -0.5  757  281           
00 01.06.11 080 (В) 10 км    ясно 
+18.3 +8.6 53 +19  1018  -0.1  757  284           
03 01.06.11 070 (В) 10 км    ясно 
+19.8 +9.5 51 +20  1018.2  0.2  757  283           
Время (UTC), дата Ветер
(°,м/с) 
Видим.   Явления Облачность Т
(°С)
Тd
(°С)
f(%) Тe
(°С)
Pmin
(гПа)
dP
(гПа)
Po
(мм)
O2
(г/м3)
Тmin Tmax R s Состояние
почвы